This demonstration page uses our WeatherBlox Daily Observations layout. Learn more.

Left ArrowRight Arrow

36.19886, -115.1175

Hourly Observations for May 21, 2020

Temp ( °F °C ) Dew Point ( °F °C ) Humidity (%) Winds ( mph kmh ) Pressure ( in mb ) Visibility ( mi km ) Precip ( " mm )
12:53 am 00:53 Clear 69 20.6 22 -5.6 17 17 NNW 8 13 29.94 1014 10 16 N/A
1:53 am 01:53 Clear 69 20.6 21 -6.1 16 16 NW 12 19 29.93 1014 10 16 N/A
2:53 am 02:53 Clear 68 20 22 -5.6 17 17 NW 13 20 29.93 1013 10 16 N/A
3:53 am 03:53 Clear 66 18.9 23 -5 19 19 NNW 13 20 29.94 1014 10 16 N/A
4:53 am 04:53 Clear 67 19.4 24 -4.4 20 20 NNW 14 22 29.95 1014 10 16 N/A
5:53 am 05:53 Sunny 65 18.3 24 -4.4 21 21 NNW 15 24 29.96 1015 10 16 N/A
6:53 am 06:53 Sunny 69 20.6 26 -3.3 20 20 N 14 22 29.97 1015 10 16 N/A
7:53 am 07:53 Sunny 72 22.2 26 -3.3 18 18 N 15 24 29.98 1015 10 16 N/A
8:53 am 08:53 Sunny 75 23.9 26 -3.3 16 16 NNW 13 20 29.98 1015 10 16 N/A
9:53 am 09:53 Sunny 78 25.6 26 -3.3 15 15 N 8 13 29.97 1015 10 16 N/A
10:53 am 10:53 Sunny 80 26.7 26 -3.3 14 14 E 8 13 29.96 1015 10 16 N/A
11:53 am 11:53 Sunny 80 26.7 25 -3.9 13 13 undefined N/A 29.95 1014 10 16 N/A
12:53 pm 12:53 Sunny 83 28.3 25 -3.9 12 12 undefined N/A 29.93 1013 10 16 N/A
1:53 pm 13:53 Sunny 85 29.4 25 -3.9 11 11 SSE 10 17 29.90 1013 10 16 N/A
2:53 pm 14:53 Sunny 84 28.9 26 -3.3 12 12 SE 8 13 29.88 1012 10 16 N/A
3:53 pm 15:53 Sunny 85 29.4 26 -3.3 12 12 VRB 3 6 29.85 1011 10 16 N/A
4:53 pm 16:53 Sunny 86 30 22 -5.6 9 9 S 9 15 29.82 1010 10 16 N/A
5:53 pm 17:53 Sunny 86 30 20 -6.7 9 9 VRB 6 9 29.80 1009 10 16 N/A
6:53 pm 18:53 Sunny 85 29.4 21 -6.1 9 9 ESE 9 15 29.78 1009 10 16 N/A
7:53 pm 19:53 Clear 83 28.3 22 -5.6 10 10 ESE 9 15 29.78 1009 10 16 N/A
8:53 pm 20:53 Clear 83 28.3 22 -5.6 10 10 SSW 5 7 29.79 1009 10 16 N/A
9:53 pm 21:53 Clear 81 27.2 21 -6.1 11 11 SE 6 9 29.81 1009 10 16 N/A
10:53 pm 22:53 Clear 78 25.6 20 -6.7 11 11 S 7 11 29.80 1009 10 16 N/A
11:53 pm 23:53 Clear 76 24.4 21 -6.1 13 13 SSW 5 7 29.79 1009 10 16 N/A

Powered by AerisWeather